Flag for U.S.A. Weather past 2 weeks in Pomona, California, U.S.A.

Now
50 °F

Passing clouds.


Feels Like: 50 °F
Forecast: 43 / 64 °F
Wind: No wind

Location: Chino Airport

Current Time: Dec 19, 2014 at 9:33:53 AM

Latest Report: Dec 19, 2014 at 8:53 AM


Visibility: 10 mi

Pressure: 30.26 "Hg

Humidity: 83%

Dew point: 45 °F

Location of PomonaLocation

Historic Weather in Pomona — Graph

°F

Pomona temperature yesterday

Maximum temperature yesterday: 63 °F (at 12:53 PM)
Minimum temperature yesterday: 43 °F (at 6:53 AM)
Average temperature yesterday: 52 °F

Past Weeks' High & Low Weather Summary

 TemperatureHumidityPressure
High79 °F (Dec 8, 2:53 PM)100% (Dec 6, 4:53 AM)30.25 "Hg (Dec 6, 4:53 AM)
Low41 °F (Dec 14, 3:02 AM)27% (Dec 10, 12:53 PM)29.84 "Hg (Dec 12, 3:53 AM)
Average56 °F78%30.07 "Hg
* Reported Dec 4 7:53 AM — Dec 19 7:53 AM, Pomona, Weather by CustomWeather, © 2014

Note: Actual official high and low records may vary slightly from our data, if they occured in-between our weather recording intervals... More about our weather records

Advertising

Pomona weather history for previous 24 hours

 ConditionsComfort  
Time TempWeatherWind HumidityBarometerVisibility
7:53 AM
Dec 19
46 °FPassing clouds.No wind93%30.25 "Hg10 mi
6:53 AM43 °FScattered clouds.No wind93%30.23 "Hg10 mi
5:53 AM43 °FClear.3 mph93%30.23 "Hg7 mi
4:53 AM45 °FClear.No wind93%30.21 "Hg7 mi
3:53 AM42 °FFog.3 mph96%30.22 "Hg5 mi
2:53 AM46 °FFog.No wind93%30.22 "Hg6 mi
2:03 AM46 °FFog.No wind96%30.22 "Hg5 mi
1:53 AM45 °FFog.No wind97%30.22 "Hg2 mi
12:53 AM46 °FClear.No wind93%30.22 "Hg7 mi
11:53 PM
Dec 18
48 °FClear.3 mph89%30.23 "Hg8 mi
10:53 PM49 °FClear.3 mph93%30.23 "Hg8 mi
9:53 PM48 °FClear.No wind93%30.23 "Hg7 mi
8:53 PM50 °FClear.No wind86%30.22 "Hg10 mi
7:53 PM52 °FClear.No wind80%30.21 "Hg10 mi
6:53 PM52 °FClear.5 mph80%30.20 "Hg10 mi
5:53 PM53 °FPassing clouds.3 mph74%30.18 "Hg10 mi
4:53 PM56 °FPartly cloudy.5 mph67%30.16 "Hg10 mi
3:53 PM59 °FBroken clouds.7 mph62%30.15 "Hg10 mi
2:53 PM62 °FBroken clouds.6 mph52%30.14 "Hg10 mi
1:53 PM63 °FScattered clouds.5 mph48%30.13 "Hg10 mi
12:53 PM63 °FBroken clouds.No wind50%30.15 "Hg10 mi
11:53 AM61 °FPassing clouds.No wind54%30.17 "Hg10 mi
10:53 AM59 °FPassing clouds.5 mph62%30.20 "Hg10 mi
9:53 AM55 °FPassing clouds.5 mph72%30.22 "Hg10 mi
Weather by CustomWeather, © 2014

See weather overviewHow to use our weather pages